Location: Hains Lake
(37.8540°N, 99.8578°W)
Time: 03:40:51
(UTC+00:00)

Vanguard 1 - Pass Details

Date: 03 December 2021
Orbit: 652 x 3830 km, 34.2° (Epoch: 21 January)

Event Time Altitude Azimuth Distance (km) Brightness Sun altitude
Exits shadow 09:34:48 79° 204° (SSW) 3,456 12.4 -47.4°
Maximum altitude 09:35:33 80° 183° (S) 3,417 12.4 -47.2°
Drops below altitude 10° 09:51:45 10° 99° (E) 4,992 14.2 -44.1°
Sets 09:54:48 0° 99° (E) 5,663 14.7 -43.5°
